PBO Station Position Time Series. Reference Frame : NAM14
Format Version,1.1.0
4-character ID,EOCG
Station name,Emergency_Operat
Begin Date, 2014-07-03
End Date, 2019-10-07
Release Date, 2019-10-08
Reference position, 34.4508479027 North Latitude, -119.7697775977 East Longitude, 42.45613 meters elevation,
Date, North (mm), East (mm), Vertical (mm), North Std. Deviation (mm), East Std. Deviation (mm),              Vertical Std. Deviation (mm), Quality,
2014-07-03,0.00, 0.00, 0.00, 1.97, 1.60, 7.51, repro,
2014-07-04,1.79, -1.60, 0.86, 1.96, 1.57, 7.45, repro,
2014-07-05,0.86, -1.53, -1.83, 1.93, 1.53, 7.24, repro,
2014-07-06,0.45, -1.44, 9.18, 1.97, 1.55, 7.40, repro,
2014-07-07,2.49, -1.62, -3.93, 1.93, 1.53, 7.25, repro,
2014-07-08,1.09, -1.66, 1.68, 1.93, 1.54, 7.33, repro,
2014-07-09,2.02, -0.03, 3.57, 1.93, 1.53, 7.23, repro,
2014-07-10,1.76, -1.46, 6.41, 1.95, 1.56, 7.38, repro,
2014-07-11,-0.31, -0.64, -0.69, 1.92, 1.52, 7.16, repro,
2014-07-12,1.06, -0.48, 7.13, 1.94, 1.53, 7.27, repro,
2014-07-13,0.10, -0.37, -1.65, 1.91, 1.53, 7.28, repro,
2014-07-14,0.26, -0.32, -3.17, 1.92, 1.54, 7.26, repro,
2014-07-15,2.15, 1.17, 7.67, 1.94, 1.55, 7.30, repro,
2014-07-16,1.55, -0.50, 3.55, 1.96, 1.56, 7.43, repro,
2014-07-17,-0.32, -0.85, 7.26, 2.01, 1.58, 7.56, repro,
2014-07-18,1.14, -0.73, 8.60, 1.97, 1.57, 7.40, repro,
2014-07-19,2.52, 0.39, -3.60, 1.92, 1.54, 7.33, repro,
2014-07-20,2.24, -0.02, 15.06, 1.93, 1.55, 7.34, repro,
2014-07-21,2.93, 0.56, 7.11, 2.07, 1.70, 8.10, repro,
2014-07-22,1.88, -0.52, -2.62, 1.98, 1.59, 7.61, repro,
2014-07-23,0.51, 1.24, -5.37, 2.06, 1.74, 7.66, repro,
2014-07-24,2.81, 0.31, 2.22, 2.02, 1.77, 7.65, repro,
2014-07-25,3.40, -0.05, 1.59, 1.95, 1.53, 7.31, repro,
2014-07-26,2.67, 0.61, -4.21, 1.94, 1.54, 7.34, repro,
2014-07-27,1.75, -0.20, 6.53, 2.00, 1.61, 7.53, repro,
2014-07-28,-2.29, -1.10, 7.65, 1.99, 1.54, 7.42, repro,
2014-07-29,1.45, 0.97, 4.35, 1.98, 1.63, 7.45, repro,
2014-07-30,1.94, -0.09, 0.42, 1.96, 1.55, 7.34, repro,
2014-07-31,2.26, 0.36, 2.33, 1.93, 1.53, 7.28, repro,
2014-08-01,2.55, 1.30, -0.04, 1.96, 1.57, 7.40, repro,
2014-08-02,1.68, 0.61, 4.48, 1.99, 1.58, 7.57, repro,
2014-08-03,-0.38, -0.45, 3.55, 1.99, 1.60, 7.56, repro,
2014-08-04,2.32, 1.55, 6.56, 1.96, 1.55, 7.41, repro,
2014-08-05,2.55, 1.22, -2.20, 2.02, 1.66, 7.82, repro,
2014-08-06,1.84, 1.12, 1.00, 1.94, 1.52, 7.30, repro,
2014-08-07,1.92, 1.68, -3.16, 1.98, 1.57, 7.45, repro,
2014-08-08,1.32, -0.02, 2.23, 2.00, 1.60, 7.54, repro,
2014-08-09,0.47, 1.80, -5.17, 1.96, 1.56, 7.46, repro,
2014-08-10,1.21, 2.12, -0.45, 1.94, 1.53, 7.29, repro,
2014-08-11,3.09, 1.70, -0.43, 1.95, 1.52, 7.29, repro,
2014-08-12,3.67, 0.25, -0.30, 1.97, 1.58, 7.48, repro,
2014-08-13,2.93, 0.87, -1.71, 1.94, 1.52, 7.28, repro,
2014-08-14,3.54, 0.99, 4.01, 2.04, 1.56, 7.66, repro,
2014-08-15,2.78, 1.22, 5.40, 2.00, 1.60, 7.54, repro,
2014-08-16,2.02, 2.00, 0.62, 1.93, 1.53, 7.24, repro,
2014-08-17,3.92, 1.30, -2.36, 1.96, 1.54, 7.36, repro,
2014-08-18,3.34, 0.10, -5.01, 2.02, 1.58, 7.65, repro,
2014-08-19,1.62, 0.56, -2.07, 1.99, 1.57, 7.51, repro,
2014-08-20,1.69, 1.89, -2.95, 2.07, 1.62, 7.86, repro,
2014-08-21,4.51, 3.43, 6.15, 2.00, 1.60, 7.56, repro,
2014-08-22,2.63, 1.20, 1.20, 2.01, 1.60, 7.57, repro,
2014-08-23,3.98, 2.43, -4.47, 1.98, 1.57, 7.49, repro,
2014-08-24,2.07, 1.47, -4.06, 1.98, 1.57, 7.49, repro,
2014-08-25,1.53, 1.36, 3.85, 1.99, 1.61, 7.57, repro,
2014-08-26,2.82, 2.11, -7.47, 1.99, 1.61, 7.54, repro,
2014-08-27,1.57, 1.59, -0.93, 2.03, 1.80, 7.78, repro,
2014-08-28,5.07, 1.06, -3.47, 2.01, 1.76, 7.68, repro,
2014-08-29,2.28, 3.63, 4.78, 1.99, 1.59, 7.47, repro,
2014-08-30,2.79, 3.15, 7.40, 1.97, 1.58, 7.48, repro,
2014-08-31,0.67, 5.17, 10.88, 1.99, 1.59, 7.62, repro,
2014-09-01,3.91, 1.05, 6.00, 1.97, 1.57, 7.47, repro,
2014-09-02,3.83, 2.28, -4.02, 1.99, 1.60, 7.47, repro,
2014-09-03,3.18, 2.93, -2.22, 2.02, 1.60, 7.62, repro,
2014-09-04,2.49, 3.09, -1.09, 1.99, 1.57, 7.49, repro,
2014-09-05,1.36, 2.12, -1.93, 2.00, 1.59, 7.60, repro,
2014-09-06,2.00, 3.39, -2.99, 1.97, 1.57, 7.49, repro,
2014-09-07,3.15, 2.32, -4.61, 2.02, 1.72, 7.61, repro,
2014-09-08,4.00, 2.31, -5.76, 2.00, 1.59, 7.63, repro,
2014-09-09,2.38, 3.70, -5.29, 2.06, 1.75, 7.87, repro,
2014-09-10,3.46, 4.23, -1.37, 2.05, 1.76, 7.80, repro,
2014-09-11,2.62, 4.60, -7.25, 2.03, 1.63, 7.80, repro,
2014-09-12,2.71, 2.68, -7.42, 1.92, 1.58, 7.31, repro,
2014-09-13,1.33, 3.12, -0.95, 1.96, 1.67, 7.45, repro,
2014-09-14,3.78, 2.00, 9.31, 1.97, 1.66, 7.49, repro,
2014-09-15,3.99, 3.25, -1.25, 1.98, 1.76, 7.59, repro,
2014-09-16,4.32, 1.58, -0.27, 1.96, 1.74, 7.52, repro,
2014-09-17,2.31, 3.05, 0.28, 1.99, 1.76, 7.70, repro,
2014-09-18,1.77, 3.74, 6.59, 1.94, 1.65, 7.57, repro,
2014-09-19,2.58, 3.76, -0.87, 1.96, 1.59, 7.47, repro,
2014-09-20,2.72, 3.21, -4.72, 1.94, 1.59, 7.40, repro,
2014-09-21,2.11, 1.91, -3.10, 1.96, 1.60, 7.43, repro,
2014-09-22,3.93, 4.09, -2.13, 1.91, 1.56, 7.24, repro,
2014-09-23,1.20, 3.01, 0.71, 1.97, 1.62, 7.53, repro,
2014-09-24,3.03, 3.33, -1.21, 1.97, 1.70, 7.60, repro,
2014-09-25,3.34, 3.41, 0.14, 1.98, 1.72, 7.69, repro,
2014-09-26,3.99, 3.82, -14.83, 1.95, 1.69, 7.56, repro,
2014-09-27,2.34, 2.12, -4.38, 1.94, 1.61, 7.46, repro,
2014-09-28,5.04, 3.50, -1.90, 1.98, 1.64, 7.62, repro,
2014-09-29,3.20, 3.13, -1.27, 1.95, 1.66, 7.60, repro,
2014-09-30,4.78, 3.61, -4.42, 1.95, 1.72, 7.59, repro,
2014-10-01,2.96, 2.38, 2.53, 1.97, 1.62, 7.52, repro,
2014-10-02,2.18, 2.42, -2.43, 2.03, 1.75, 7.81, repro,
2014-10-03,3.47, 2.61, -4.89, 2.00, 1.81, 7.87, repro,
2014-10-04,1.93, 4.83, -2.17, 2.03, 1.81, 7.98, repro,
2014-10-05,3.32, 5.01, -4.32, 1.96, 1.77, 7.65, repro,
2014-10-06,5.19, 2.32, -5.75, 1.97, 1.74, 7.67, repro,
2014-10-07,3.00, 3.40, -3.87, 1.99, 1.79, 7.84, repro,
2014-10-08,2.05, 3.53, -0.07, 1.99, 1.75, 7.78, repro,
2014-10-09,1.85, 3.15, -3.32, 1.93, 1.63, 7.44, repro,
2014-10-10,3.20, 3.45, -7.08, 1.96, 1.61, 7.49, repro,
2014-10-11,3.66, 2.92, -7.43, 1.97, 1.63, 7.55, repro,
2014-10-12,5.27, 4.82, -6.19, 1.96, 1.64, 7.56, repro,
2014-10-13,2.05, 3.30, -4.90, 1.98, 1.70, 7.77, repro,
2014-10-14,2.26, 2.89, -1.74, 1.91, 1.58, 7.29, repro,
2014-10-15,2.62, 2.67, -3.44, 1.94, 1.59, 7.41, repro,
2014-10-16,2.59, 3.14, -7.93, 1.93, 1.58, 7.34, repro,
2014-10-17,1.43, 2.68, -0.61, 1.98, 1.64, 7.64, repro,
2014-10-18,0.99, 4.11, -5.72, 1.96, 1.61, 7.48, repro,
2014-10-19,1.39, 3.16, 4.17, 2.00, 1.61, 7.40, repro,
2014-10-20,1.60, 3.18, -2.34, 1.97, 1.61, 7.47, repro,
2014-10-21,2.73, 3.75, -8.96, 1.96, 1.62, 7.40, repro,
2014-10-22,3.55, 4.92, -7.45, 2.02, 1.73, 7.75, repro,
2014-10-23,2.89, 3.28, 1.98, 1.98, 1.71, 7.91, repro,
2014-10-24,1.22, 4.57, -0.81, 1.97, 1.71, 7.60, repro,
2014-10-25,0.59, 3.78, -2.51, 1.91, 1.59, 7.36, repro,
2014-10-26,1.71, 4.44, -3.49, 1.96, 1.62, 7.44, repro,
2014-10-27,2.86, 4.58, -1.46, 1.98, 1.68, 7.84, repro,
2014-10-28,2.44, 4.44, 2.20, 2.10, 1.77, 8.20, repro,
2014-10-29,1.79, 3.26, 1.79, 1.93, 1.69, 7.53, repro,
2014-10-30,0.76, 4.02, -3.90, 1.88, 1.57, 7.24, repro,
2014-10-31,1.29, 4.58, -4.40, 1.88, 1.57, 7.22, repro,
2014-11-01,-0.42, 3.61, 12.47, 1.93, 1.59, 7.39, repro,
2014-11-02,-0.67, 4.59, 14.74, 1.91, 1.59, 7.35, repro,
2014-11-03,2.23, 5.06, 3.54, 1.91, 1.59, 7.42, repro,
2014-11-04,1.46, 5.00, 4.00, 1.89, 1.59, 7.34, repro,
2014-11-05,1.60, 4.84, -5.16, 1.90, 1.68, 7.37, repro,
2014-11-06,2.75, 5.14, -6.82, 1.96, 1.74, 7.71, repro,
2014-11-07,2.44, 6.35, -0.58, 2.02, 1.79, 8.01, repro,
2014-11-08,1.16, 4.36, 3.28, 1.97, 1.75, 7.81, repro,
2014-11-09,1.88, 5.14, 12.19, 1.88, 1.58, 7.27, repro,
2014-11-10,-0.27, 4.98, 10.11, 1.88, 1.58, 7.29, repro,
2014-11-11,2.51, 5.62, -0.30, 1.89, 1.59, 7.30, repro,
2014-11-12,0.52, 6.06, -6.17, 1.91, 1.59, 7.38, repro,
2014-11-13,2.22, 5.78, -0.54, 1.93, 1.61, 7.52, repro,
2014-11-14,1.80, 3.83, 6.12, 1.91, 1.60, 7.44, repro,
2014-11-15,0.96, 6.20, 4.35, 1.93, 1.60, 7.47, repro,
2014-11-16,-1.42, 4.62, 10.76, 1.90, 1.61, 7.43, repro,
2014-11-17,1.09, 6.79, -7.20, 1.97, 1.66, 7.72, repro,
2014-11-18,0.70, 5.21, 2.99, 1.99, 1.70, 7.83, repro,
2014-11-19,2.52, 7.23, 4.45, 1.95, 1.66, 7.64, repro,
2014-11-20,2.44, 5.04, -7.02, 1.96, 1.62, 7.67, repro,
2014-11-21,-3.75, 7.71, 20.95, 2.08, 1.68, 8.09, repro,
2014-11-22,2.01, 5.99, 2.62, 2.06, 1.71, 8.19, repro,
2014-11-23,5.71, 7.93, 14.75, 1.98, 1.63, 7.81, repro,
2014-11-24,1.19, 6.24, -3.31, 2.10, 1.89, 8.55, repro,
2014-11-25,2.32, 5.62, -2.80, 2.05, 1.80, 8.24, repro,
2014-11-26,1.21, 4.81, -3.93, 2.03, 1.76, 8.09, repro,
2014-11-27,1.92, 6.26, 3.65, 1.99, 1.79, 7.99, repro,
2014-11-28,1.86, 6.56, -5.10, 2.02, 1.85, 8.14, repro,
2014-11-29,2.13, 6.39, 2.71, 1.98, 1.68, 7.77, repro,
2014-11-30,2.70, 6.02, 1.77, 1.98, 1.67, 7.74, repro,
2014-12-01,1.55, 5.71, 4.32, 1.95, 1.62, 7.46, repro,
2014-12-02,1.80, 5.80, 4.23, 1.93, 1.63, 7.58, repro,
2014-12-03,1.74, 6.84, -7.71, 1.92, 1.63, 7.51, repro,
2014-12-04,1.24, 5.97, -6.88, 1.93, 1.61, 7.36, repro,
2014-12-05,-0.43, 7.38, 1.19, 1.92, 1.61, 7.39, repro,
2014-12-06,0.22, 5.84, -9.71, 1.92, 1.59, 7.33, repro,
2014-12-07,-1.55, 7.04, -1.59, 1.87, 1.57, 7.23, repro,
2014-12-08,1.80, 6.59, -4.25, 1.87, 1.60, 7.30, repro,
2014-12-09,2.47, 6.53, -9.25, 1.86, 1.59, 7.23, repro,
2014-12-10,3.21, 5.16, -3.73, 1.90, 1.65, 7.48, repro,
2014-12-11,1.03, 6.40, 2.32, 1.88, 1.64, 7.42, repro,
2014-12-12,0.49, 4.06, 2.13, 1.88, 1.61, 7.30, repro,
2014-12-13,6.73, 3.42, 14.56, 1.86, 1.58, 7.26, repro,
2014-12-14,5.58, 3.51, -2.58, 1.82, 1.56, 7.09, repro,
2014-12-15,3.70, 1.91, -5.26, 1.87, 1.60, 7.22, repro,
2014-12-16,4.75, 2.91, -2.40, 1.94, 1.62, 7.41, repro,
2014-12-17,1.24, -0.21, 18.92, 1.91, 1.59, 7.33, repro,
2014-12-18,2.52, 2.51, 7.28, 1.83, 1.56, 7.14, repro,
2014-12-19,3.07, 3.38, -1.58, 1.87, 1.61, 7.27, repro,
2014-12-20,1.21, 3.68, -9.24, 1.83, 1.55, 7.13, repro,
2014-12-21,-1.67, 8.18, -10.82, 1.86, 1.59, 7.33, repro,
2014-12-22,1.32, 2.89, 19.86, 1.90, 1.71, 7.50, repro,
2014-12-23,0.56, 4.20, 2.13, 1.88, 1.70, 7.33, repro,
2014-12-24,2.64, 2.66, -4.83, 1.82, 1.54, 7.07, repro,
2014-12-25,4.06, 2.07, 5.89, 1.86, 1.63, 7.38, repro,
2014-12-26,5.23, 2.79, -5.58, 1.84, 1.54, 7.09, repro,
2014-12-27,2.36, 2.63, 3.37, 1.85, 1.57, 7.18, repro,
2014-12-28,1.76, 2.57, 1.72, 1.83, 1.53, 7.04, repro,
2014-12-29,3.43, 3.17, -4.25, 1.86, 1.62, 7.37, repro,
2014-12-30,0.13, 3.09, -4.50, 1.88, 1.60, 7.25, repro,
2014-12-31,-0.21, 2.09, 6.69, 1.84, 1.56, 7.18, repro,
2015-01-01,1.97, 1.97, 3.01, 1.85, 1.55, 7.19, repro,
2015-01-02,2.05, 2.66, 3.34, 1.84, 1.54, 7.13, repro,
2015-01-03,0.85, 3.10, 1.10, 1.82, 1.53, 7.07, repro,
2015-01-04,0.55, 3.36, -3.07, 1.86, 1.55, 7.18, repro,
2015-01-05,-3.62, 2.84, -21.90, 1.88, 1.60, 7.20, repro,
2015-01-06,0.72, 2.56, -7.10, 1.91, 1.70, 7.32, repro,
2015-01-07,0.38, 3.56, 2.55, 1.96, 1.81, 7.58, repro,
2015-01-08,1.23, 2.32, -2.46, 2.08, 1.80, 8.23, repro,
2015-01-09,2.22, 2.16, -5.54, 1.87, 1.61, 7.22, repro,
2015-01-10,0.87, 1.21, 1.17, 1.86, 1.58, 7.21, repro,
2015-01-11,1.63, -3.69, 6.77, 1.87, 1.57, 7.20, repro,
2015-01-12,2.34, -0.43, -3.32, 1.86, 1.56, 7.18, repro,
2015-01-13,1.69, 1.55, -0.48, 1.86, 1.57, 7.19, repro,
2015-01-14,5.16, 0.94, -3.17, 1.84, 1.57, 7.17, repro,
2015-01-15,4.63, 0.10, 3.42, 1.89, 1.62, 7.33, repro,
2015-01-16,2.89, 0.65, 1.38, 1.93, 1.59, 7.43, repro,
2015-01-17,4.66, 0.21, -0.14, 1.96, 1.64, 7.49, repro,
2015-01-18,3.92, 1.38, -6.05, 1.86, 1.56, 7.21, repro,
2015-01-19,3.56, 1.65, -1.63, 1.85, 1.58, 7.25, repro,
2015-01-20,2.10, 1.32, 1.79, 1.86, 1.57, 7.20, repro,
2015-01-21,2.19, 0.48, 2.68, 1.88, 1.58, 7.28, repro,
2015-01-22,4.10, 0.41, 0.09, 1.87, 1.57, 7.24, repro,
2015-01-23,3.61, 0.39, 0.33, 1.95, 1.63, 7.55, repro,
2015-01-24,2.77, -0.07, 7.96, 1.97, 1.75, 7.60, repro,
2015-01-25,2.51, -0.23, 1.35, 1.91, 1.69, 7.32, repro,
2015-01-26,2.38, -0.04, 3.00, 1.88, 1.58, 7.29, repro,
2015-01-27,2.17, -0.31, -3.81, 1.95, 1.59, 7.38, repro,
2015-01-28,2.86, 0.09, -2.71, 1.90, 1.56, 7.27, repro,
2015-01-29,1.44, 0.77, -1.79, 1.92, 1.57, 7.32, repro,
2015-01-30,2.67, -0.23, -0.43, 1.91, 1.57, 7.29, repro,
2015-01-31,2.45, -0.26, -1.42, 1.87, 1.55, 7.23, repro,
2015-02-01,2.39, 0.53, -1.88, 1.89, 1.57, 7.26, repro,
2015-02-02,3.38, 0.66, 1.28, 1.95, 1.61, 7.50, repro,
2015-02-03,3.07, 1.06, 0.90, 1.91, 1.57, 7.32, repro,
2015-02-04,1.38, 1.41, 6.99, 1.85, 1.57, 7.13, repro,
2015-02-05,3.31, 0.37, 3.34, 1.91, 1.58, 7.25, repro,
2015-02-06,4.23, 0.03, 3.68, 1.96, 1.61, 7.42, repro,
2015-02-07,2.09, 1.69, 3.71, 1.88, 1.58, 7.26, repro,
2015-02-08,3.02, 1.08, 2.00, 1.88, 1.57, 7.25, repro,
2015-02-09,-0.16, 0.34, 5.85, 2.05, 1.75, 8.19, repro,
2015-02-10,1.98, 2.70, -1.09, 1.93, 1.62, 7.36, repro,
2015-02-11,3.02, 1.38, 0.99, 2.06, 1.73, 7.72, repro,
2015-02-12,2.11, 1.59, -3.64, 1.93, 1.69, 7.42, repro,
2015-02-13,3.15, 1.67, -7.92, 1.97, 1.78, 7.52, repro,
2015-02-14,1.87, 3.31, -0.50, 1.90, 1.70, 7.36, repro,
2015-02-15,2.66, 2.63, 0.44, 1.88, 1.58, 7.18, repro,
2015-02-16,1.97, 2.50, 1.60, 1.88, 1.57, 7.20, repro,
2015-02-17,2.27, 2.13, 2.17, 1.90, 1.57, 7.24, repro,
2015-02-18,1.94, 3.09, -7.04, 1.88, 1.57, 7.25, repro,
2015-02-19,0.73, 2.52, -2.01, 1.88, 1.60, 7.31, repro,
2015-02-20,1.89, 3.55, 3.76, 1.88, 1.56, 7.25, repro,
2015-02-21,1.64, 2.77, 3.14, 1.89, 1.56, 7.21, repro,
2015-02-22,1.80, 1.32, 0.19, 1.88, 1.55, 7.20, repro,
2015-02-23,2.70, 1.00, 7.39, 1.89, 1.57, 7.28, repro,
2015-02-24,-0.35, 1.99, -2.78, 1.87, 1.56, 7.22, repro,
2015-02-25,3.19, 4.21, -3.38, 1.87, 1.56, 7.22, repro,
2015-02-26,3.33, 2.83, 5.37, 1.96, 1.72, 7.80, repro,
2015-02-27,-7.73, 4.66, 2.82, 1.91, 1.57, 7.35, repro,
2015-02-28,-5.46, 3.47, 14.71, 1.90, 1.58, 7.35, repro,
2015-03-01,0.20, 3.28, -0.27, 1.88, 1.57, 7.20, repro,
2015-03-02,0.40, 2.68, 4.48, 1.88, 1.56, 7.25, repro,
2015-03-03,1.52, 2.15, 8.36, 1.90, 1.59, 7.40, repro,
2015-03-04,3.65, 2.39, 2.38, 1.90, 1.56, 7.20, repro,
2015-03-05,2.42, 3.01, -5.11, 1.95, 1.57, 7.50, repro,
2015-03-06,1.66, 2.42, -7.48, 2.05, 1.72, 7.86, repro,
2015-03-07,0.40, 2.86, -1.79, 1.92, 1.78, 7.44, repro,
2015-03-08,2.01, 1.69, 3.53, 1.92, 1.60, 7.35, repro,
2015-03-09,2.10, 2.26, 2.98, 1.90, 1.58, 7.33, repro,
2015-03-10,2.26, 1.82, -4.47, 1.91, 1.57, 7.30, repro,
2015-03-11,2.18, 3.43, -5.18, 1.91, 1.58, 7.33, repro,
2015-03-12,-0.30, 0.73, 2.45, 1.93, 1.72, 7.63, repro,
2015-03-13,1.06, 1.76, 3.00, 1.93, 1.77, 7.49, repro,
2015-03-14,3.41, 3.23, -1.02, 1.95, 1.78, 7.59, repro,
2015-03-15,2.67, 3.06, -2.42, 1.92, 1.69, 7.46, repro,
2015-03-16,1.72, 3.40, -10.57, 1.93, 1.69, 7.39, repro,
2015-03-17,1.60, 3.94, -3.57, 1.90, 1.59, 7.31, repro,
2015-03-18,1.56, 3.48, -0.74, 1.90, 1.62, 7.42, repro,
2015-03-19,1.07, 1.87, 0.57, 1.90, 1.58, 7.29, repro,
2015-03-20,0.29, 1.49, -3.85, 1.94, 1.59, 7.36, repro,
2015-03-21,1.92, 2.21, -4.95, 1.92, 1.60, 7.39, repro,
2015-03-22,2.16, 2.57, -6.48, 1.90, 1.59, 7.25, repro,
2015-03-23,1.81, 2.41, 8.96, 1.90, 1.60, 7.33, repro,
2015-03-24,-3.02, 4.78, 18.18, 1.96, 1.79, 7.55, repro,
2015-03-25,2.10, 2.43, 8.13, 1.94, 1.73, 7.47, repro,
2015-03-26,1.60, 2.28, -5.88, 1.95, 1.78, 7.49, repro,
2015-03-27,2.20, 3.33, -3.96, 2.00, 1.80, 7.68, repro,
2015-03-28,2.37, 3.13, -5.67, 1.95, 1.59, 7.46, repro,
2015-03-29,1.09, 4.17, 1.81, 2.02, 1.60, 7.64, repro,
2015-03-30,2.43, 2.44, 1.45, 2.00, 1.60, 7.52, repro,
2015-03-31,0.51, 3.73, -7.41, 2.03, 1.63, 7.75, repro,
2015-04-01,1.05, 2.69, 10.27, 1.97, 1.64, 7.61, repro,
2015-04-02,0.47, 2.85, 3.82, 1.89, 1.57, 7.27, repro,
2015-04-03,2.68, 3.42, -6.71, 1.93, 1.75, 7.46, repro,
2015-04-04,2.17, 1.58, -0.41, 1.91, 1.61, 7.43, repro,
2015-04-05,1.61, 3.18, -0.33, 1.92, 1.62, 7.49, repro,
2015-04-06,0.10, 1.23, 3.76, 1.89, 1.59, 7.37, repro,
2015-04-07,2.11, 0.76, 1.83, 1.89, 1.57, 7.27, repro,
2015-04-08,-3.30, 2.49, 13.73, 1.94, 1.63, 7.48, repro,
2015-04-09,1.24, 0.84, 6.52, 1.88, 1.55, 7.18, repro,
2015-04-10,1.99, 1.63, 2.36, 1.93, 1.59, 7.38, repro,
2015-04-11,0.85, 2.72, 0.90, 1.93, 1.61, 7.49, repro,
2015-04-12,2.94, 3.24, 9.03, 1.87, 1.57, 7.34, repro,
2015-04-13,3.43, 1.97, -2.54, 1.92, 1.59, 7.38, repro,
2015-04-14,2.30, 2.66, -5.93, 1.93, 1.59, 7.42, repro,
2015-04-15,3.59, 2.00, 11.21, 1.98, 1.68, 7.77, repro,
2015-04-16,1.88, 2.74, -3.59, 1.96, 1.64, 7.68, repro,
2015-04-17,1.79, 3.50, 2.31, 1.93, 1.64, 7.57, repro,
2015-04-18,1.67, 2.46, 5.29, 1.92, 1.60, 7.47, repro,
2015-04-19,2.06, 2.73, -2.44, 1.92, 1.58, 7.37, repro,
2015-04-20,0.44, 1.83, 4.69, 1.95, 1.59, 7.45, repro,
2015-04-21,2.49, 2.40, 9.44, 1.94, 1.58, 7.36, repro,
2015-04-22,1.57, 2.71, 3.14, 1.94, 1.57, 7.36, repro,
2015-04-23,1.16, 2.37, -2.04, 1.92, 1.57, 7.35, repro,
2015-04-24,2.74, 3.65, 1.48, 1.90, 1.56, 7.31, repro,
2015-04-25,-0.88, 2.45, 12.02, 1.92, 1.55, 7.32, repro,
2015-04-26,13.23, 6.46, -0.98, 1.94, 1.56, 7.45, repro,
2015-04-27,4.88, 3.74, -0.10, 1.92, 1.59, 7.48, repro,
2015-04-28,2.00, 2.87, -4.16, 1.90, 1.57, 7.32, repro,
2015-04-29,2.75, 3.49, -1.60, 1.92, 1.62, 7.38, repro,
2015-04-30,3.41, 2.90, -0.85, 1.93, 1.62, 7.50, repro,
2015-05-01,2.43, 2.45, 2.81, 1.93, 1.58, 7.40, repro,
2015-05-02,3.37, 4.28, -3.41, 1.89, 1.53, 7.20, repro,
2015-05-03,1.67, 3.39, -0.58, 1.90, 1.53, 7.20, repro,
2015-05-04,2.46, 2.80, -0.48, 1.91, 1.55, 7.33, repro,
2015-05-05,3.50, 3.88, -7.69, 1.90, 1.54, 7.30, repro,
2015-05-06,3.45, 3.32, -0.04, 1.90, 1.54, 7.30, repro,
2015-05-07,3.61, 3.59, 1.68, 1.92, 1.58, 7.39, repro,
2015-05-08,1.75, 6.79, 3.73, 1.91, 1.54, 7.29, repro,
2015-05-09,2.18, 4.90, -11.39, 1.90, 1.53, 7.21, repro,
2015-05-10,1.23, 2.28, 0.52, 1.89, 1.53, 7.21, repro,
2015-05-11,3.62, 2.83, -4.74, 1.89, 1.54, 7.27, repro,
2015-05-12,2.52, 3.48, -3.25, 1.96, 1.54, 7.49, repro,
2015-05-13,3.29, 3.28, -2.41, 1.96, 1.56, 7.52, repro,
2015-05-14,2.63, 1.87, -7.16, 1.91, 1.54, 7.34, repro,
2015-05-15,1.85, 3.12, -0.96, 1.89, 1.53, 7.24, repro,
2015-05-16,-0.23, 2.41, 16.85, 1.90, 1.54, 7.27, repro,
2015-05-17,2.84, 2.60, 2.37, 1.89, 1.54, 7.25, repro,
2015-05-18,2.90, 2.91, -2.41, 1.90, 1.54, 7.30, repro,
2015-05-19,3.73, 5.03, -8.57, 1.97, 1.57, 7.55, repro,
2015-05-20,3.20, 5.06, -3.33, 1.90, 1.54, 7.29, repro,
2015-05-21,1.35, 3.58, -5.76, 1.88, 1.53, 7.17, repro,
2015-05-22,1.27, 2.40, 4.75, 1.89, 1.54, 7.21, repro,
2015-05-23,4.62, 3.26, -8.61, 1.89, 1.55, 7.23, repro,
2015-05-24,3.02, 4.32, -6.41, 1.90, 1.54, 7.25, repro,
2015-05-25,1.55, 3.56, -4.02, 1.91, 1.55, 7.27, repro,
2015-05-26,2.31, 2.35, -3.97, 1.89, 1.54, 7.23, repro,
2015-05-27,1.20, 3.23, 0.68, 1.88, 1.53, 7.15, repro,
2015-05-28,2.04, 3.45, -0.41, 1.93, 1.56, 7.43, repro,
2015-05-29,1.14, 5.08, -2.35, 1.89, 1.55, 7.21, repro,
2015-05-30,0.49, 5.14, -3.19, 1.91, 1.58, 7.37, repro,
2015-05-31,1.31, 3.72, -4.64, 1.91, 1.55, 7.28, repro,
2015-06-01,2.06, 3.84, -5.87, 1.87, 1.53, 7.13, repro,
2015-06-02,1.51, 2.95, -3.77, 1.88, 1.54, 7.17, repro,
2015-06-03,2.27, 4.03, -7.65, 1.86, 1.53, 7.09, repro,
2015-06-04,-0.78, 3.46, -0.23, 1.89, 1.55, 7.24, repro,
2015-06-05,2.00, 3.30, -7.73, 1.91, 1.60, 7.32, repro,
2015-06-06,0.12, 3.62, -5.04, 1.89, 1.55, 7.20, repro,
2015-06-07,2.44, 3.51, 2.99, 1.88, 1.54, 7.11, repro,
2015-06-08,2.91, 1.85, -4.76, 1.88, 1.55, 7.15, repro,
2015-06-09,1.04, 4.33, 11.54, 1.88, 1.54, 7.15, repro,
2015-06-10,0.67, 4.59, 0.64, 1.89, 1.55, 7.20, repro,
2015-06-11,0.04, 3.62, -3.54, 2.00, 1.60, 7.42, repro,
2015-06-12,1.09, 5.00, -5.52, 1.92, 1.58, 7.32, repro,
2015-06-13,-0.20, 4.41, 0.06, 1.88, 1.54, 7.17, repro,
2015-06-14,1.70, 5.41, 1.15, 1.87, 1.53, 7.08, repro,
2015-06-15,1.67, 7.19, -1.01, 1.91, 1.58, 7.28, repro,
2015-06-16,2.22, 4.84, -7.91, 1.89, 1.56, 7.22, repro,
2015-06-17,1.66, 5.29, -6.54, 1.92, 1.62, 7.36, repro,
2015-06-18,1.36, 5.09, 0.49, 1.93, 1.63, 7.41, repro,
2015-06-19,2.77, 4.58, 1.69, 1.89, 1.61, 7.30, repro,
2015-06-20,2.47, 5.00, 0.82, 1.89, 1.55, 7.14, repro,
2015-06-21,2.90, 5.00, -2.00, 1.88, 1.56, 7.23, repro,
2015-06-22,2.47, 5.57, -1.56, 1.89, 1.58, 7.23, repro,
2015-06-23,-0.12, 5.18, 4.93, 1.98, 1.60, 7.46, repro,
2015-06-24,1.13, 4.96, -6.31, 1.94, 1.60, 7.35, repro,
2015-06-25,1.98, 3.98, 0.35, 1.90, 1.59, 7.22, repro,
2015-06-26,0.68, 4.87, 4.35, 1.94, 1.55, 7.22, repro,
2015-06-27,1.69, 5.48, -1.45, 1.88, 1.55, 7.12, repro,
2015-06-28,-0.41, 5.34, 0.76, 1.90, 1.58, 7.21, repro,
2015-06-29,2.22, 5.41, -4.74, 1.88, 1.56, 7.15, repro,
2015-06-30,1.10, 4.90, 5.89, 1.95, 1.59, 7.43, repro,
2015-07-01,0.77, 5.65, 2.40, 1.93, 1.57, 7.37, repro,
2015-07-02,1.24, 6.47, -0.97, 1.95, 1.58, 7.42, repro,
2015-07-03,2.48, 5.45, -0.71, 1.89, 1.55, 7.18, repro,
2015-07-04,0.73, 6.33, -0.33, 1.87, 1.55, 7.11, repro,
2015-07-05,-17.96, -5.15, 12.41, 1.89, 1.56, 7.15, repro,
2015-07-06,-17.54, -6.00, 16.36, 1.88, 1.55, 7.14, repro,
2015-07-07,-17.56, -7.16, 10.99, 1.88, 1.56, 7.16, repro,
2015-07-08,-16.75, -6.34, 8.28, 1.88, 1.55, 7.11, repro,
2015-07-09,-16.33, -5.41, 15.84, 1.90, 1.57, 7.20, repro,
2015-07-10,-17.59, -5.81, 18.98, 1.91, 1.61, 7.26, repro,
2015-07-11,-16.38, -6.13, 12.34, 1.90, 1.60, 7.15, repro,
2015-07-12,-16.35, -4.87, 16.17, 1.90, 1.57, 7.19, repro,
2015-07-13,-17.67, -4.63, 8.60, 1.90, 1.56, 7.17, repro,
2015-07-14,-16.29, -6.28, 12.49, 1.88, 1.55, 7.09, repro,
2015-07-15,-18.53, -4.66, 12.89, 1.87, 1.55, 7.12, repro,
2015-07-16,-17.63, -5.22, 10.02, 1.91, 1.60, 7.25, repro,
2015-07-17,-18.83, -5.19, 13.41, 1.88, 1.55, 7.10, repro,
2015-07-18,-15.75, -4.83, 2.27, 1.91, 1.56, 7.20, repro,
2015-07-19,-17.24, -3.67, 18.42, 1.92, 1.67, 7.36, repro,
2015-07-20,-17.19, -4.95, 14.20, 1.89, 1.56, 7.15, repro,
2015-07-21,-20.35, -4.53, 15.62, 1.91, 1.57, 7.26, repro,
2015-07-22,-17.96, -5.40, 15.29, 1.89, 1.55, 7.11, repro,
2015-07-23,-18.00, -6.33, 26.00, 1.88, 1.55, 7.10, repro,
2015-07-24,-16.41, -4.40, 15.91, 1.89, 1.57, 7.16, repro,
2015-07-25,-17.89, -4.01, 21.70, 1.89, 1.57, 7.16, repro,
2015-07-26,-17.49, -5.83, 13.68, 1.89, 1.55, 7.12, repro,
2015-07-27,-17.37, -4.81, 9.49, 1.89, 1.54, 7.10, repro,
2015-07-28,-19.69, -5.57, 24.25, 1.97, 1.59, 7.47, repro,
2015-07-29,-17.80, -3.66, 3.29, 2.00, 1.61, 7.47, repro,
2015-07-30,-17.49, -3.07, 12.77, 1.89, 1.57, 7.17, repro,
2015-07-31,-17.71, -3.62, 12.18, 1.90, 1.56, 7.19, repro,
2015-08-01,-16.98, -3.29, 10.16, 1.89, 1.56, 7.17, repro,
2015-08-02,-18.04, -4.89, 7.53, 1.88, 1.54, 7.06, repro,
2015-08-03,-18.27, -5.48, 16.01, 1.90, 1.58, 7.21, repro,
2015-08-04,-18.10, -4.92, 20.41, 1.94, 1.63, 7.39, repro,
2015-08-05,-17.76, -3.77, 7.62, 1.92, 1.61, 7.35, repro,
2015-08-06,-18.57, -4.41, 10.10, 1.94, 1.61, 7.47, repro,
2015-08-07,-19.80, -4.46, 18.99, 1.93, 1.60, 7.31, repro,
2015-08-08,-17.74, -4.53, 28.66, 1.96, 1.66, 7.48, repro,
2015-08-09,-17.49, -5.10, 18.68, 2.02, 1.67, 7.59, repro,
2015-08-10,-19.86, -4.86, 15.87, 1.92, 1.60, 7.34, repro,
2015-08-11,-16.80, -5.07, 11.23, 1.92, 1.60, 7.35, repro,
2015-08-12,-17.29, -3.87, 10.13, 1.88, 1.58, 7.13, repro,
2015-08-13,-19.00, -4.53, 17.59, 1.95, 1.71, 7.33, repro,
2015-08-14,-17.25, -6.16, 15.90, 1.93, 1.70, 7.25, repro,
2015-08-15,-18.50, -3.28, 12.31, 1.93, 1.61, 7.30, repro,
2015-08-16,-17.87, -2.88, 20.72, 1.92, 1.67, 7.23, repro,
2015-08-17,-17.61, -4.04, 13.60, 1.89, 1.57, 7.22, repro,
2015-08-18,-18.23, -5.80, 19.10, 1.95, 1.64, 7.38, repro,
2015-08-19,-18.02, -4.86, 16.55, 1.91, 1.60, 7.27, repro,
2015-08-20,-20.06, -6.56, 18.75, 1.88, 1.58, 7.21, repro,
2015-08-21,-18.09, -3.36, 18.88, 1.91, 1.57, 7.22, repro,
2015-08-22,-17.72, -5.61, 8.97, 1.89, 1.57, 7.18, repro,
2015-08-23,-16.43, -4.73, 16.50, 1.96, 1.65, 7.40, repro,
2015-08-24,-18.87, -4.06, 16.11, 1.89, 1.59, 7.19, repro,
2015-08-25,-17.64, -4.59, 17.74, 1.91, 1.63, 7.35, repro,
2015-08-26,-20.03, -2.32, 10.69, 1.93, 1.71, 7.31, repro,
2015-08-27,-19.33, -3.80, 13.18, 1.97, 1.78, 7.42, repro,
2015-08-28,-18.10, -3.50, 11.82, 1.93, 1.72, 7.30, repro,
2015-08-29,-16.79, -2.47, 12.29, 1.94, 1.69, 7.38, repro,
2015-08-30,-19.44, -3.62, 19.41, 1.90, 1.58, 7.23, repro,
2015-08-31,-17.29, -5.24, 20.24, 1.89, 1.57, 7.21, repro,
2015-09-01,-20.76, -3.57, 13.49, 1.96, 1.60, 7.39, repro,